Hourly Weather Roundup
Issued by NWS Central Illinois

Home | Current Version | Previous Version | Text Only | Print | Product List | Glossary On
Versions: 1 2 3 4 5 6 7 8 9 10 11 12 13 14 15 16 17 18 19 20 21 22 23 24 25 26 27 28 29 30 31 32 33 34 35 36 37 38 39 40 41 42 43 44 45 46 47 48 49 50
000
NZUS43 KILX 192210
HWRILX

AREA WEATHER ROUNDUP
NATIONAL WEATHER SERVICE, LINCOLN IL
400 PM CST FRI DEC 19 2014


CITY           SKY/WX    TMP DP  RH WIND       PRES   REMARKS
BLOOMINGTON    PTCLDY    29  23  78 NW5       30.29F WCI  24
CHAMPAIGN      PTCLDY    32  24  72 CALM      30.29S
DECATUR        PTCLDY    31  24  75 NE6       30.28F WCI  25
FLORA          PTCLDY    35  24  63 NE3       30.29F
GALESBURG      CLOUDY    32  22  65 N5        30.28F WCI  27
JACKSONVILLE   CLOUDY    35  27  74 NE5       30.28S WCI  31
LACON          CLOUDY    31  21  66 CALM      30.30F
LAWRENCEVILLE  PTCLDY    35  24  64 N3        30.31S
LITCHFIELD     MOCLDY    33  24  68 CALM      30.27S
$$


CITY           SKY/WX    TMP DP  RH WIND       PRES   REMARKS
LINCOLN        PTCLDY    33  24  69 CALM      30.30F
MACOMB         MOCLDY    32  26  78 CALM      30.30S
MATTOON        PTCLDY    32  24  72 NE3       30.28F
MT CARMEL AP   PTCLDY    36  27  69 N5        30.30S WCI  32
OLNEY-NOBLE AP MOCLDY    34  25  69 CALM      30.29F
PARIS          CLOUDY    33  27  78 CALM      30.31S
PEORIA         PTCLDY    34  20  56 CALM      30.29F
PONTIAC        MOCLDY    31  25  80 W7        30.32S WCI  24
RANTOUL        MOCLDY    33  26  75 CALM      30.30R
ROBINSON       PTCLDY    33  23  67 CALM      30.32S
SPRINGFIELD    MOCLDY    34  23  64 NE5       30.29F WCI  30
TAYLORVILLE    MOCLDY    32  25  74 N5        30.28F WCI  27
$$

...REGIONAL REPORTS...


CITY           SKY/WX    TMP DP  RH WIND       PRES   REMARKS
CHICAGO O`HARE CLOUDY    31  22  69 S3        30.30R
KANKAKEE       CLOUDY    32  26  80 S5        30.33R WCI  27
MOLINE         CLOUDY    32  20  61 E3        30.30S
MOUNT VERNON   CLOUDY    36  23  60 NE3       30.28S
PITTSFIELD     CLOUDY    35  28  78 CALM      30.28S
QUINCY         CLOUDY    33  27  78 CALM      30.26F
ROCKFORD       CLOUDY    28  21  75 S3        30.33R
$$


CITY           SKY/WX    TMP DP  RH WIND       PRES   REMARKS
BURLINGTON     CLOUDY    33  24  69 CALM      30.27F
CEDAR RAPIDS   CLOUDY    30  22  72 S7        30.26S WCI  23
DES MOINES     CLOUDY    33  28  81 SE8       30.22S WCI  26
KIRKSVILLE     CLOUDY    32  30  92 E7        30.23F FOG     WCI  26
OTTUMWA        CLOUDY    31  25  78 SE7       30.24F WCI  24
ST LOUIS       CLOUDY    38  27  64 CALM      30.27R
$$


CITY           SKY/WX    TMP DP  RH WIND       PRES   REMARKS
TERRE HAUTE    CLOUDY    33  23  66 E3        30.31R
EVANSVILLE     PTCLDY    36  25  64 N6        30.30F WCI  31
INDIANAPOLIS   CLOUDY    29  22  75 W5        30.30R WCI  24
LAFAYETTE      CLOUDY    29  26  89 W3        30.32R
MADISON        CLOUDY    26  20  77 CALM      30.28R
MILWAUKEE      MOCLDY    31  18  58 SW5       30.28R WCI  26
$$




USA.gov is the U.S. government's official web portal to all federal, state and local government web resources and services.